Weather History for Casper, WY

Change the Weather History Date:

Sunday, December 2, 2012

  Actual Average Record
Temperature  
Mean Temperature 49 °F 26 °F  
Max Temperature 56 °F 36 °F 59 °F (1939)
Min Temperature 41 °F 15 °F -15 °F (1985)
Degree Days  
Heating Degree Days 16 39  
Month to date heating degree days 32 78  
Since 1 July heating degree days 1566 1932  
Cooling Degree Days 0 0  
Month to date cooling degree days 0 0  
Year to date cooling degree days 697 422  
Moisture  
Dew Point 26 °F    
Average Humidity 42    
Maximum Humidity 53    
Minimum Humidity 30    
Precipitation  
Precipitation 0.00 in 0.01 in 0.42 in (1955)
Month to date precipitation 0.00 0.03  
Year to date precipitation 7.49 12.06  
Snow  
Snow 0.00 in 0.40 in - ()
Month to date snowfall 0.0 0.7  
Since 1 July snowfall 12.7 20.2  
Snow Depth 0.00 in    
Sea Level Pressure  
Sea Level Pressure 29.63 in    
Wind  
Wind Speed 31 mph (SW)    
Max Wind Speed 51 mph    
Max Gust Speed 62 mph    
Visibility 10 miles    
Events      
T = Trace of Precipitation, MM = Missing Value Source: NWS Daily Summary

Daily Weather History Graph

Daily Weather History Graph

Search for Another Location

Airport:

Trip Planner

Search our weather history database for the weather conditions in past years. The results will help you decide how hot, cold, wet, or windy it might be!

Date:

Astronomy

Dec. 02, 2012 Rise Set
Actual Time 7:18 AM MST 4:32 PM MST
Civil Twilight 6:46 AM MST 5:03 PM MST
Nautical Twilight 6:11 AM MST 5:39 PM MST
Astronomical Twilight 5:37 AM MST 6:13 PM MST
Moon 8:25 PM MST (12/2) 10:07 AM MST (12/2)
Length of Visible Light 10h 17m
Length of Day
9h 13m
Waning Gibbous, 85% of the Moon is Illuminated
Dec 2
Waning Gibbous
Dec 6
Last Quarter
Dec 13
New
Dec 19
First Quarter
Dec 28
Full

Hourly Weather History & Observations

Time (MST) Temp. Windchill Dew Point Humidity Pressure Visibility Wind Dir Wind Speed Gust Speed Precip Events Conditions
12:53 AM 42.1 °F 35.7 °F 23.0 °F 47% 29.85 in 10.0 mi SW 11.5 mph - N/A   Clear
1:53 AM 42.1 °F 33.9 °F 25.0 °F 51% 29.84 in 10.0 mi SW 17.3 mph 21.9 mph N/A   Clear
2:53 AM 42.1 °F 33.6 °F 25.0 °F 51% 29.83 in 10.0 mi SW 18.4 mph - N/A   Clear
3:53 AM 42.1 °F 32.8 °F 26.1 °F 53% 29.79 in 10.0 mi SSW 21.9 mph - N/A   Clear
4:53 AM 43.0 °F 33.3 °F 26.1 °F 51% 29.78 in 10.0 mi SSW 25.3 mph 32.2 mph N/A   Clear
5:53 AM 44.1 °F 34.8 °F 25.0 °F 47% 29.78 in 10.0 mi SSW 25.3 mph 32.2 mph N/A   Clear
6:53 AM 45.0 °F 36.0 °F 26.1 °F 48% 29.77 in 10.0 mi SSW 25.3 mph 35.7 mph N/A   Clear
7:53 AM 46.9 °F - 27.0 °F 46% 29.75 in 10.0 mi SSW 28.8 mph 40.3 mph N/A   Clear
8:53 AM 48.9 °F - 28.0 °F 44% 29.68 in 10.0 mi SW 35.7 mph 49.5 mph N/A   Clear
9:53 AM 50.0 °F - 27.0 °F 41% 29.63 in 10.0 mi SW 35.7 mph 49.5 mph N/A   Clear
10:53 AM 54.0 °F - 26.1 °F 34% 29.63 in 10.0 mi SW 34.5 mph 51.8 mph N/A   Clear
11:53 AM 54.0 °F - 26.1 °F 34% 29.57 in 9.0 mi SW 46.0 mph 59.8 mph N/A   Clear
12:53 PM 55.9 °F - 26.1 °F 32% 29.55 in 7.0 mi SSW 38.0 mph 54.1 mph N/A   Scattered Clouds
1:53 PM 55.9 °F - 25.0 °F 30% 29.51 in 10.0 mi SW 38.0 mph 52.9 mph N/A   Scattered Clouds
2:53 PM 55.0 °F - 24.1 °F 30% 29.52 in 10.0 mi SW 29.9 mph 44.9 mph N/A   Clear
3:53 PM 54.0 °F - 24.1 °F 31% 29.50 in 10.0 mi SW 34.5 mph 51.8 mph N/A   Clear
4:53 PM 53.1 °F - 24.1 °F 32% 29.51 in 10.0 mi SW 32.2 mph 46.0 mph N/A   Clear
5:53 PM 52.0 °F - 23.0 °F 32% 29.47 in 10.0 mi SW 34.5 mph 49.5 mph N/A   Clear
6:53 PM 52.0 °F - 24.1 °F 34% 29.50 in 10.0 mi SW 40.3 mph 52.9 mph N/A   Clear
7:53 PM 51.1 °F - 25.0 °F 36% 29.46 in 10.0 mi SW 40.3 mph 56.4 mph N/A   Clear
8:53 PM 51.1 °F - 26.1 °F 38% 29.49 in 10.0 mi SSW 34.5 mph 47.2 mph N/A   Scattered Clouds
9:53 PM 51.1 °F - 27.0 °F 39% 29.52 in 10.0 mi SSW 29.9 mph 35.7 mph N/A   Partly Cloudy
10:53 PM 50.0 °F - 28.9 °F 44% 29.55 in 10.0 mi SSW 27.6 mph 40.3 mph N/A   Overcast
11:53 PM 48.0 °F - 32.0 °F 54% 29.64 in 10.0 mi WSW 33.4 mph 47.2 mph N/A   Overcast